User: anonymous   Login
Location: Unspecified
(0.0000°N, 0.0000°E)
Time: 20:24:54
(UTC+00:00)
Language:

OBJECT NW - Orbit

View from above orbital plane
View from above orbital plane
View from above satellite
View from above satellite

Ground track
Ground track

The orbit data is extracted from the following two-line orbital elements,

1 43548U 98067NW  18350.91428344 +.00005689 +00000-0 +83278-4 0  9996
2 43548 051.6380 185.9378 0006488 162.4920 197.6297 15.57231532024405
Epoch (UTC): 16 December 2018 21:56:34
Eccentricity: 0.0006488
inclination: 51.6380°
perigee height: 391 km
apogee height: 400 km
right ascension of ascending node: 185.9378°
argument of perigee: 162.4920°
revolutions per day: 15.57231532
mean anomaly at epoch: 197.6297°
orbit number at epoch: 2440

The dashed part of the orbit path shows where the satellite is in the earth's shadow,  

DLR